Regional Weather Roundup
Issued by NWS Upton, NY

Current Version | Previous Version | Text Only | Print | Product List | Glossary Off
Versions: 1 2 3 4 5 6 7 8 9 10 11 12 13 14 15 16 17 18 19 20 21 22 23 24 25 26 27 28 29 30 31 32 33 34 35 36 37 38 39 40 41 42 43 44 45 46 47 48 49 50
000 ASUS41 KOKX 290405 RWROKX REGIONAL WEATHER ROUNDUP NATIONAL WEATHER SERVICE NEW YORK NY 1100 PM EST FRI NOV 28 2014 NOTE: "FAIR" INDICATES FEW OR NO CLOUDS BELOW 12,000 FEET WITH NO SIGNIFICANT WEATHER AND/OR OBSTRUCTIONS TO VISIBILITY. NYZ071-072-176-178-NJZ106-104-290500- NEW YORK CITY METRO AREA CITY SKY/WX TMP DP RH WIND PRES REMARKS CENTRAL PARK CLEAR 29 12 49 VRB6 30.29R WCI 23 LAGUARDIA APRT PTCLDY 30 13 49 N9 30.28R WCI 22 KENNEDY INTL PTCLDY 28 11 48 N6 30.29R WCI 22 NEWARK/LIBERTY PTCLDY 27 14 58 NW7 30.28S WCI 19 BRNX BOT. GARD N/A N/A N/A N/A W13 30.29R TETERBORO CLEAR 27 14 58 CALM 30.27S $$ NYZ177-179-078>081-290500- LONG ISLAND NEW YORK CITY SKY/WX TMP DP RH WIND PRES REMARKS FARMINGDALE CLEAR 28 13 53 CALM 30.27S ISLIP PTCLDY 28 13 53 NW3 30.25S SHIRLEY CLEAR 26 16 65 NW5 30.27S WCI 20 WESTHAMPTON MOCLDY 27 17 66 W7 30.27R WCI 19 MONTAUK POINT N/A 31 15 52 NW13G20 30.25R WCI 21 $$ NYZ052-065-067-290500- HUDSON VALLEY CITY SKY/WX TMP DP RH WIND PRES REMARKS WHITE PLAINS CLEAR 24 13 62 NW7 30.23S WCI 16 NEWBURGH CLEAR 18 12 79 W6 30.25S WCI 9 MONTGOMERY CLEAR 15 10 80 SW6 30.24S WCI 6 POUGHKEEPSIE FAIR 17 13 84 CALM 30.26S ALBANY MOCLDY 23 12 62 CALM 30.25R $$ NJZ001-105-106-008-010-013-015-019>022-104-290500- NEW JERSEY CITY SKY/WX TMP DP RH WIND PRES REMARKS NEWARK/LIBERTY PTCLDY 27 14 58 NW7 30.28S WCI 19 TETERBORO CLEAR 27 14 58 CALM 30.27S CALDWELL CLEAR 21 14 74 CALM 30.27F MORRISTOWN N/A 21 19 93 CALM 30.27S SOMERVILLE CLEAR 20 16 84 CALM 30.26S SUSSEX CLEAR 12 10 92 CALM 30.24F ANDOVER N/A 17 14 88 CALM 30.24F TRENTON CLEAR 24 16 71 CALM 30.27S MILLVILLE CLEAR 23 19 85 CALM 30.29S ATLANTIC CITY CLEAR 25 19 78 SW3 30.30S WRIGHTSTOWN CLEAR 27 16 63 SW2 30.25R TOMS RIVER CLEAR 19 16 86 CALM 30.28F BELMAR CLEAR 25 10 54 CALM 30.27S $$ PAZ047>061-062-071-290500- EASTERN PENNSYLVANIA CITY SKY/WX TMP DP RH WIND PRES REMARKS PHILADELPHIA MOCLDY 29 17 61 W5 30.29S WCI 24 ALLENTOWN MOCLDY 21 14 74 N5 30.25F WCI 15 SCRANTON MOCLDY 16 9 74 S6 30.21F WCI 7 $$ CTZ002-004>006-009-010-012-RIZ004-006-007-MAZ004-011-015-290500- SOUTHERN NEW ENGLAND IN CT CITY SKY/WX TMP DP RH WIND PRES REMARKS BRADLEY INTL CLEAR 25 12 58 CALM 30.24R HARTFORD CLEAR 26 13 57 VRB5 30.26R WCI 20 DANBURY CLEAR 20 12 71 W3 30.25S WTRBRY/OXFORD CLEAR 19 9 63 CALM 30.22S BRIDGEPORT CLEAR 26 14 60 NW3 30.27R MERIDEN CLEAR 23 14 68 NW5 30.26R WCI 17 NEW HAVEN CLEAR 31 17 56 NW9 30.27R WCI 23 CHESTER FAIR 27 14 59 W3 30.24R GROTON CLEAR 26 14 60 NW10 30.24R WCI 16 WILLIMANTIC CLEAR 25 15 66 W5 30.24R WCI 19 IN RI CITY SKY/WX TMP DP RH WIND PRES REMARKS PROVIDENCE CLEAR 26 15 63 VRB3 30.23R BLOCK ISLAND CLEAR 28 12 50 NW10G18 30.21S WCI 19 WESTERLY CLEAR 26 15 63 NW5 30.24R WCI 20 IN MA CITY SKY/WX TMP DP RH WIND PRES REMARKS BOSTON PTCLDY 27 18 69 W8 30.21R WCI 19 WORCESTER PTCLDY 20 14 77 W10 30.16R WCI 9 WESTFIELD CLEAR 24 13 62 W5 30.24R WCI 18 PROVINCETOWN CLOUDY 32 14 47 NW14G30 30.18R WCI 22 NANTUCKET PTCLDY 31 17 56 NW10 30.19R WCI 22 $$ ANZ330-335-338-340-345-350-353-355-290500- COASTAL MARINE OBSERVATIONS STATION/POSITION TIME SKY/WX TEMP WIND PRES VSBY WAVE AIR SEA DIR/SP/G HT/PER (UTC) (F) (DEG/KT/KT) (MB) (MI) (FT/S) NY HARB ENTRANCE 0400 34 53 320/ 14/ 17 1025.3 2/ 4 4S FIRE IS 0400 51 N/A 2/ 3 20S FIRE ISLAND 0400 34 53 340/ 17/ 21 1024.5 3/ 5 23SW MTP 0400 N/A 4/ 5 HUDSON CANYON 0400 36 58 340/ 16/ 19 1023.8 5/ 6 EXECUTION ROCKS 0400 31 47 330/ 10/ 14 N/A WESTERN LI SOUND 0400 30 310/ 8/ 10 N/A 0 CENTRAL LI SOUND 0400 31 49 330/ 16/ 21 N/A 2/ 3 EASTERN LI SOUND 0300 31 51 320/ 14/ 21 N/A ROBBINS REEF 0400 30 320/ 6/ 8 1023.9 $$ >>>>>>>>>>>>>>>>>>>>>>>>>>>> KEY <<<<<<<<<<<<<<<<<<<<<<<<<<< > < > SKY/WX - SKY CONDITION/PRESENT WEATHER < > TMP - TEMPERATURE IN FAHRENHEIT < > DP - DEWPOINT IN FAHRENHEIT < > RH - RELATIVE HUMIDITY IN PERCENT < > WIND - DIRECTION AND SPEED IN MPH < > PRES - MEAN SEA LEVEL PRESSURE IN INCHES OF HG < > WCI - WIND CHILL INDEX < > VSB - VISIBILITY IN MILES < > HX - HEAT INDEX < > TC - TEMPERATURE IN CELSIUS < > VRB - VARIABLE WIND DIRECTION < > < >>>>>>>>>>>>>>>>>>>>>>>>>>>> KEY <<<<<<<<<<<<<<<<<<<<<<<<<<<

USA.gov is the U.S. government's official web portal to all federal, state and local government web resources and services.